FLOCK 2K-42

Last updated on Fri Aug 04 2017 00:15:03 GMT+0000 (Coordinated Universal Time)

1 42881U 17042BJ 17215.57264271 .00002994 00000-0 95892-4 0 9998 2 42881 97.0038 123.5055 0014467 163.8545 196.3162 15.33013293 2906
UTC large
Height (km)
Speed (km/s)
/
Latitude / Longitude
Inclination (degrees)
Orbital Period (minutes)
Azimuth
Elevation
Range (km)
Doppler Factor

Next 0 passes for location: London (51.5072 / 0.1276)

Sorry there are no passes over London.